Погода в Столбовом

Россия / Республика Крым     45°21′48″N   33°29′42″E
темп.,
°C
ветер,
м/с
пор.,
м/с
влажн.,
%
обл.,
%
осадки,
мм/ч
давл.,
гПа
погр.,
м
3 августа, вт
вт300:00+24ююв22780 0.0 101229
03:00+23ююз11800 0.0 101211
06:00+24ю34760 0.0 101265
09:00+29юз34560 0.0 1012654
12:00+31юз54475 0.0 1013834
15:00+31зюз66470 0.0 1012987
18:00+30зсз334599 0.0 1012741
21:00+26ссв236715 0.0 101348
4 августа, ср
ср400:00+24св117349 0.0 101413
03:00+24ссв337326 0.0 101448
06:00+23св477698 0.0 1014185
09:00+28всв45540 0.0 1015596
12:00+32с22390 0.0 10151784
15:00+33ссз43331 0.0 10142462
18:00+32ссв662989 0.0 10141790
21:00+26в4658100 0.0 1015108
5 августа, чт
чт500:00+25в3461100 0.0 101575
03:00+23всв33653 0.0 101559
06:00+22в35711 0.0 101586
09:00+29в45455 0.0 1014623
12:00+32ююв23340 0.0 10131688
15:00+32зюз65392 0.0 10121377
18:00+31з554227 0.0 1011988
21:00+25ююз34740 0.0 101061
6 августа, пт
пт600:00+24в22720 0.0 101025
03:00+23всв33690 0.0 100954
06:00+22всв33690 0.0 100841
09:00+30в68400 0.0 1006484
12:00+34ююз35315 0.0 10051926
15:00+33зюз77375 0.0 1004712
18:00+32зсз55385 0.1 10041173
21:00+27сз35461 0.1 100463
7 августа, сб
сб700:00+25ссз33594 0.0 100454
03:00+24ссз3571100 0.1 1004114
06:00+24сз2370100 0.0 100456
09:00+28сз3450100 0.0 1005447
12:00+31сз5542100 0.0 1006906
15:00+30зсз5645100 0.0 1008906
18:00+30ссз664599 0.0 1008855
21:00+25зсз486829 0.0 1009196